owner,sensor,date,latitude,longitude,vertical_datum,sea_water_practical_salinity,qcFlag 
SCCF RECON,ioos:station:SCCF:13:1,2017-08-01T00:00:00Z,26.5255,-82.0032,2.599,17.43,1111122 
SCCF RECON,ioos:station:SCCF:13:1,2017-08-01T01:00:00Z,26.5255,-82.0032,2.63,17.04,1111122 
SCCF RECON,ioos:station:SCCF:13:1,2017-08-01T02:00:00Z,26.5255,-82.0032,2.62,18.45,1111122 
SCCF RECON,ioos:station:SCCF:13:1,2017-08-01T03:00:00Z,26.5255,-82.0032,2.6,17.37,1111122 
SCCF RECON,ioos:station:SCCF:13:1,2017-08-01T04:00:00Z,26.5255,-82.0032,2.56,16.7,1111122 
SCCF RECON,ioos:station:SCCF:13:1,2017-08-01T05:00:00Z,26.5255,-82.0032,2.57,15.98,1111122 
SCCF RECON,ioos:station:SCCF:13:1,2017-08-01T06:00:00Z,26.5255,-82.0032,2.53,15.55,1111122 
SCCF RECON,ioos:station:SCCF:13:1,2017-08-01T07:00:00Z,26.5255,-82.0032,2.582,21.01,1111122 
SCCF RECON,ioos:station:SCCF:13:1,2017-08-01T08:00:00Z,26.5255,-82.0032,2.565,21.33,1111122 
SCCF RECON,ioos:station:SCCF:13:1,2017-08-01T09:00:00Z,26.5255,-82.0032,2.65,22.2,1111122 
SCCF RECON,ioos:station:SCCF:13:1,2017-08-01T10:00:00Z,26.5255,-82.0032,2.685,22.45,1111122 
SCCF RECON,ioos:station:SCCF:13:1,2017-08-01T11:00:00Z,26.5255,-82.0032,2.74,19.52,1111122 
SCCF RECON,ioos:station:SCCF:13:1,2017-08-01T12:00:00Z,26.5255,-82.0032,2.79,22.86,1111122 
SCCF RECON,ioos:station:SCCF:13:1,2017-08-01T13:00:00Z,26.5255,-82.0032,2.8,24.52,1111122 
SCCF RECON,ioos:station:SCCF:13:1,2017-08-01T14:00:00Z,26.5255,-82.0032,2.783,26.2,1111122 
SCCF RECON,ioos:station:SCCF:13:1,2017-08-01T15:00:00Z,26.5255,-82.0032,2.72,25.3,1111122 
SCCF RECON,ioos:station:SCCF:13:1,2017-08-01T16:00:00Z,26.5255,-82.0032,2.66,21.68,1111122 
SCCF RECON,ioos:station:SCCF:13:1,2017-08-01T17:00:00Z,26.5255,-82.0032,2.546,16.74,1111122 
SCCF RECON,ioos:station:SCCF:13:1,2017-08-01T18:00:00Z,26.5255,-82.0032,2.452,14.0,1111122 
SCCF RECON,ioos:station:SCCF:13:1,2017-08-01T19:00:00Z,26.5255,-82.0032,2.38,13.31,1111122 
SCCF RECON,ioos:station:SCCF:13:1,2017-08-01T20:00:00Z,26.5255,-82.0032,2.31,11.78,1111122 
SCCF RECON,ioos:station:SCCF:13:1,2017-08-01T21:00:00Z,26.5255,-82.0032,2.293,10.75,1111122 
SCCF RECON,ioos:station:SCCF:13:1,2017-08-01T22:00:00Z,26.5255,-82.0032,2.362,10.23,1111122 
SCCF RECON,ioos:station:SCCF:13:1,2017-08-01T23:00:00Z,26.5255,-82.0032,2.449,9.89,1111122 
SCCF RECON,ioos:station:SCCF:13:1,2017-08-02T00:00:00Z,26.5255,-82.0032,2.55,10.42,1111122 
SCCF RECON,ioos:station:SCCF:13:1,2017-08-02T01:00:00Z,26.5255,-82.0032,2.56,12.6,1111122 
SCCF RECON,ioos:station:SCCF:13:1,2017-08-02T02:00:00Z,26.5255,-82.0032,2.52,13.72,1111122 
SCCF RECON,ioos:station:SCCF:13:1,2017-08-02T03:00:00Z,26.5255,-82.0032,2.51,14.87,1111122 
SCCF RECON,ioos:station:SCCF:13:1,2017-08-02T04:00:00Z,26.5255,-82.0032,2.57,15.25,1111122 
SCCF RECON,ioos:station:SCCF:13:1,2017-08-02T05:00:00Z,26.5255,-82.0032,2.6,17.85,1111122 
SCCF RECON,ioos:station:SCCF:13:1,2017-08-02T06:00:00Z,26.5255,-82.0032,2.62,19.82,1111122 
SCCF RECON,ioos:station:SCCF:13:1,2017-08-02T07:00:00Z,26.5255,-82.0032,2.53,21.57,1111122 
SCCF RECON,ioos:station:SCCF:13:1,2017-08-02T08:00:00Z,26.5255,-82.0032,2.46,18.67,1111122 
SCCF RECON,ioos:station:SCCF:13:1,2017-08-02T09:00:00Z,26.5255,-82.0032,2.52,14.45,1111122 
SCCF RECON,ioos:station:SCCF:13:1,2017-08-02T10:00:00Z,26.5255,-82.0032,2.64,21.17,1111122 
SCCF RECON,ioos:station:SCCF:13:1,2017-08-02T11:00:00Z,26.5255,-82.0032,2.7,22.73,1111122 
SCCF RECON,ioos:station:SCCF:13:1,2017-08-02T12:00:00Z,26.5255,-82.0032,2.75,23.65,1111122 
SCCF RECON,ioos:station:SCCF:13:1,2017-08-02T13:00:00Z,26.5255,-82.0032,2.81,23.61,1111122 
SCCF RECON,ioos:station:SCCF:13:1,2017-08-02T14:00:00Z,26.5255,-82.0032,2.83,24.72,1111122 
SCCF RECON,ioos:station:SCCF:13:1,2017-08-02T15:00:00Z,26.5255,-82.0032,2.815,25.64,1111122 
SCCF RECON,ioos:station:SCCF:13:1,2017-08-02T16:00:00Z,26.5255,-82.0032,2.772,26.74,1111122 
SCCF RECON,ioos:station:SCCF:13:1,2017-08-02T17:00:00Z,26.5255,-82.0032,2.674,24.12,1111122 
SCCF RECON,ioos:station:SCCF:13:1,2017-08-02T18:00:00Z,26.5255,-82.0032,2.577,21.04,1111122 
SCCF RECON,ioos:station:SCCF:13:1,2017-08-02T19:00:00Z,26.5255,-82.0032,2.481,14.98,1111122 
SCCF RECON,ioos:station:SCCF:13:1,2017-08-02T20:00:00Z,26.5255,-82.0032,2.397,14.48,1111122 
SCCF RECON,ioos:station:SCCF:13:1,2017-08-02T21:00:00Z,26.5255,-82.0032,2.32,12.12,1111122 
SCCF RECON,ioos:station:SCCF:13:1,2017-08-02T22:00:00Z,26.5255,-82.0032,2.311,10.76,1111122 
SCCF RECON,ioos:station:SCCF:13:1,2017-08-02T23:00:00Z,26.5255,-82.0032,2.357,9.78,1111122 
SCCF RECON,ioos:station:SCCF:13:1,2017-08-03T00:00:00Z,26.5255,-82.0032,2.47,9.01,1111122 
SCCF RECON,ioos:station:SCCF:13:1,2017-08-03T01:00:00Z,26.5255,-82.0032,2.52,9.41,1111122 
SCCF RECON,ioos:station:SCCF:13:1,2017-08-03T02:00:00Z,26.5255,-82.0032,2.55,12.27,1111122 
SCCF RECON,ioos:station:SCCF:13:1,2017-08-03T03:00:00Z,26.5255,-82.0032,2.62,12.57,1111122 
SCCF RECON,ioos:station:SCCF:13:1,2017-08-03T04:00:00Z,26.5255,-82.0032,2.67,18.05,1111122 
SCCF RECON,ioos:station:SCCF:13:1,2017-08-03T05:00:00Z,26.5255,-82.0032,2.66,19.6,1111122 
SCCF RECON,ioos:station:SCCF:13:1,2017-08-03T06:00:00Z,26.5255,-82.0032,2.62,22.92,1111122 
SCCF RECON,ioos:station:SCCF:13:1,2017-08-03T07:00:00Z,26.5255,-82.0032,2.61,24.03,1111122 
SCCF RECON,ioos:station:SCCF:13:1,2017-08-03T08:00:00Z,26.5255,-82.0032,2.57,20.67,1111122 
SCCF RECON,ioos:station:SCCF:13:1,2017-08-03T09:00:00Z,26.5255,-82.0032,2.56,17.44,1111122 
SCCF RECON,ioos:station:SCCF:13:1,2017-08-03T10:00:00Z,26.5255,-82.0032,2.57,17.24,1111122 
SCCF RECON,ioos:station:SCCF:13:1,2017-08-03T11:00:00Z,26.5255,-82.0032,2.62,25.25,1111122 
SCCF RECON,ioos:station:SCCF:13:1,2017-08-03T12:00:00Z,26.5255,-82.0032,2.7,23.5,1111122 
SCCF RECON,ioos:station:SCCF:13:1,2017-08-03T13:00:00Z,26.5255,-82.0032,2.77,24.0,1111122 
SCCF RECON,ioos:station:SCCF:13:1,2017-08-03T14:00:00Z,26.5255,-82.0032,2.83,25.68,1111122 
SCCF RECON,ioos:station:SCCF:13:1,2017-08-03T15:00:00Z,26.5255,-82.0032,2.856,26.85,1111122 
SCCF RECON,ioos:station:SCCF:13:1,2017-08-03T16:00:00Z,26.5255,-82.0032,2.841,27.15,1111122 
SCCF RECON,ioos:station:SCCF:13:1,2017-08-03T17:00:00Z,26.5255,-82.0032,2.779,27.23,1111122 
SCCF RECON,ioos:station:SCCF:13:1,2017-08-03T18:00:00Z,26.5255,-82.0032,2.684,25.15,1111122 
SCCF RECON,ioos:station:SCCF:13:1,2017-08-03T19:00:00Z,26.5255,-82.0032,2.583,22.41,1111122 
SCCF RECON,ioos:station:SCCF:13:1,2017-08-03T20:00:00Z,26.5255,-82.0032,2.492,16.3,1111122 
SCCF RECON,ioos:station:SCCF:13:1,2017-08-03T21:00:00Z,26.5255,-82.0032,2.408,15.11,1111122 
SCCF RECON,ioos:station:SCCF:13:1,2017-08-03T22:00:00Z,26.5255,-82.0032,2.33,12.48,1111122 
SCCF RECON,ioos:station:SCCF:13:1,2017-08-03T23:00:00Z,26.5255,-82.0032,2.311,10.53,1111122 
SCCF RECON,ioos:station:SCCF:13:1,2017-08-04T00:00:00Z,26.5255,-82.0032,2.41,9.45,1111122 
SCCF RECON,ioos:station:SCCF:13:1,2017-08-04T01:00:00Z,26.5255,-82.0032,2.51,8.61,1111122 
SCCF RECON,ioos:station:SCCF:13:1,2017-08-04T02:00:00Z,26.5255,-82.0032,2.57,9.45,1111122 
SCCF RECON,ioos:station:SCCF:13:1,2017-08-04T03:00:00Z,26.5255,-82.0032,2.63,13.49,1111122 
SCCF RECON,ioos:station:SCCF:13:1,2017-08-04T04:00:00Z,26.5255,-82.0032,2.68,16.47,1111122 
SCCF RECON,ioos:station:SCCF:13:1,2017-08-04T05:00:00Z,26.5255,-82.0032,2.692,20.11,1111122 
SCCF RECON,ioos:station:SCCF:13:1,2017-08-04T06:00:00Z,26.5255,-82.0032,2.68,23.32,1111122 
SCCF RECON,ioos:station:SCCF:13:1,2017-08-04T07:00:00Z,26.5255,-82.0032,2.63,24.36,1111122 
SCCF RECON,ioos:station:SCCF:13:1,2017-08-04T08:00:00Z,26.5255,-82.0032,2.55,22.74,1111122 
SCCF RECON,ioos:station:SCCF:13:1,2017-08-04T09:00:00Z,26.5255,-82.0032,2.49,17.22,1111122 
SCCF RECON,ioos:station:SCCF:13:1,2017-08-04T10:00:00Z,26.5255,-82.0032,2.47,8.21,1111122 
SCCF RECON,ioos:station:SCCF:13:1,2017-08-04T11:00:00Z,26.5255,-82.0032,2.52,8.02,1111122 
SCCF RECON,ioos:station:SCCF:13:1,2017-08-04T12:00:00Z,26.5255,-82.0032,2.62,19.24,1111122 
SCCF RECON,ioos:station:SCCF:13:1,2017-08-04T13:00:00Z,26.5255,-82.0032,2.7,19.33,1111122 
SCCF RECON,ioos:station:SCCF:13:1,2017-08-04T14:00:00Z,26.5255,-82.0032,2.767,22.01,1111122 
SCCF RECON,ioos:station:SCCF:13:1,2017-08-04T15:00:00Z,26.5255,-82.0032,2.815,24.69,1111122 
SCCF RECON,ioos:station:SCCF:13:1,2017-08-04T16:00:00Z,26.5255,-82.0032,2.841,25.97,1111122 
SCCF RECON,ioos:station:SCCF:13:1,2017-08-04T17:00:00Z,26.5255,-82.0032,2.832,26.72,1111122 
SCCF RECON,ioos:station:SCCF:13:1,2017-08-04T18:00:00Z,26.5255,-82.0032,2.748,27.06,1111122 
SCCF RECON,ioos:station:SCCF:13:1,2017-08-04T19:00:00Z,26.5255,-82.0032,2.615,24.53,1111122 
SCCF RECON,ioos:station:SCCF:13:1,2017-08-04T20:00:00Z,26.5255,-82.0032,2.507,19.2,1111122 
SCCF RECON,ioos:station:SCCF:13:1,2017-08-04T21:00:00Z,26.5255,-82.0032,2.427,14.52,1111122 
SCCF RECON,ioos:station:SCCF:13:1,2017-08-04T22:00:00Z,26.5255,-82.0032,2.351,12.66,1111122 
SCCF RECON,ioos:station:SCCF:13:1,2017-08-04T23:00:00Z,26.5255,-82.0032,2.288,10.58,1111122 
SCCF RECON,ioos:station:SCCF:13:1,2017-08-05T00:00:00Z,26.5255,-82.0032,2.29,9.2,1111122 
SCCF RECON,ioos:station:SCCF:13:1,2017-08-05T01:00:00Z,26.5255,-82.0032,2.41,7.96,1111122 
SCCF RECON,ioos:station:SCCF:13:1,2017-08-05T02:00:00Z,26.5255,-82.0032,2.53,8.06,1111122 
SCCF RECON,ioos:station:SCCF:13:1,2017-08-05T03:00:00Z,26.5255,-82.0032,2.6,11.94,1111122 
SCCF RECON,ioos:station:SCCF:13:1,2017-08-05T04:00:00Z,26.5255,-82.0032,2.66,16.22,1111122 
SCCF RECON,ioos:station:SCCF:13:1,2017-08-05T05:00:00Z,26.5255,-82.0032,2.72,20.72,1111122 
SCCF RECON,ioos:station:SCCF:13:1,2017-08-05T06:00:00Z,26.5255,-82.0032,2.74,24.2,1111122 
SCCF RECON,ioos:station:SCCF:13:1,2017-08-05T07:00:00Z,26.5255,-82.0032,2.73,24.71,1111122 
SCCF RECON,ioos:station:SCCF:13:1,2017-08-05T08:00:00Z,26.5255,-82.0032,2.65,25.45,1111122 
SCCF RECON,ioos:station:SCCF:13:1,2017-08-05T09:00:00Z,26.5255,-82.0032,2.61,25.02,1111122 
SCCF RECON,ioos:station:SCCF:13:1,2017-08-05T10:00:00Z,26.5255,-82.0032,2.6,22.35,1111122 
SCCF RECON,ioos:station:SCCF:13:1,2017-08-05T11:00:00Z,26.5255,-82.0032,2.58,20.29,1111122 
SCCF RECON,ioos:station:SCCF:13:1,2017-08-05T12:00:00Z,26.5255,-82.0032,2.62,22.17,1111122 
SCCF RECON,ioos:station:SCCF:13:1,2017-08-05T13:00:00Z,26.5255,-82.0032,2.727,21.35,1111122 
SCCF RECON,ioos:station:SCCF:13:1,2017-08-05T14:00:00Z,26.5255,-82.0032,2.817,20.94,1111122 
SCCF RECON,ioos:station:SCCF:13:1,2017-08-05T15:00:00Z,26.5255,-82.0032,2.871,24.25,1111122 
SCCF RECON,ioos:station:SCCF:13:1,2017-08-05T16:00:00Z,26.5255,-82.0032,2.915,25.97,1111122 
SCCF RECON,ioos:station:SCCF:13:1,2017-08-05T17:00:00Z,26.5255,-82.0032,2.936,27.52,1111122 
SCCF RECON,ioos:station:SCCF:13:1,2017-08-05T18:00:00Z,26.5255,-82.0032,2.89,27.51,1111122 
SCCF RECON,ioos:station:SCCF:13:1,2017-08-05T19:00:00Z,26.5255,-82.0032,2.776,27.39,1111122 
SCCF RECON,ioos:station:SCCF:13:1,2017-08-05T20:00:00Z,26.5255,-82.0032,2.631,24.14,1111122 
SCCF RECON,ioos:station:SCCF:13:1,2017-08-05T21:00:00Z,26.5255,-82.0032,2.531,20.94,1111122 
SCCF RECON,ioos:station:SCCF:13:1,2017-08-05T22:00:00Z,26.5255,-82.0032,2.453,17.85,1111122 
SCCF RECON,ioos:station:SCCF:13:1,2017-08-05T23:00:00Z,26.5255,-82.0032,2.35,14.34,1111122 
SCCF RECON,ioos:station:SCCF:13:1,2017-08-06T00:00:00Z,26.5255,-82.0032,2.29,12.08,1111122 
SCCF RECON,ioos:station:SCCF:13:1,2017-08-06T01:00:00Z,26.5255,-82.0032,2.31,10.44,1111122 
SCCF RECON,ioos:station:SCCF:13:1,2017-08-06T02:00:00Z,26.5255,-82.0032,2.43,8.95,1111122 
SCCF RECON,ioos:station:SCCF:13:1,2017-08-06T03:00:00Z,26.5255,-82.0032,2.53,8.64,1111122 
SCCF RECON,ioos:station:SCCF:13:1,2017-08-06T04:00:00Z,26.5255,-82.0032,2.62,12.58,1111122 
SCCF RECON,ioos:station:SCCF:13:1,2017-08-06T05:00:00Z,26.5255,-82.0032,2.67,15.62,1111122 
SCCF RECON,ioos:station:SCCF:13:1,2017-08-06T06:00:00Z,26.5255,-82.0032,2.7,20.26,1111122 
SCCF RECON,ioos:station:SCCF:13:1,2017-08-06T07:00:00Z,26.5255,-82.0032,2.68,24.07,1111122 
SCCF RECON,ioos:station:SCCF:13:1,2017-08-06T08:00:00Z,26.5255,-82.0032,2.63,25.03,1111122 
SCCF RECON,ioos:station:SCCF:13:1,2017-08-06T09:00:00Z,26.5255,-82.0032,2.57,24.75,1111122 
SCCF RECON,ioos:station:SCCF:13:1,2017-08-06T10:00:00Z,26.5255,-82.0032,2.5,21.71,1111122 
SCCF RECON,ioos:station:SCCF:13:1,2017-08-06T11:00:00Z,26.5255,-82.0032,2.468,12.4,1111122 
SCCF RECON,ioos:station:SCCF:13:1,2017-08-06T12:00:00Z,26.5255,-82.0032,2.51,10.5,1111122 
SCCF RECON,ioos:station:SCCF:13:1,2017-08-06T13:00:00Z,26.5255,-82.0032,2.62,18.54,1111122 
SCCF RECON,ioos:station:SCCF:13:1,2017-08-06T14:00:00Z,26.5255,-82.0032,2.731,17.21,1111122 
SCCF RECON,ioos:station:SCCF:13:1,2017-08-06T15:00:00Z,26.5255,-82.0032,2.811,22.58,1111122 
SCCF RECON,ioos:station:SCCF:13:1,2017-08-06T16:00:00Z,26.5255,-82.0032,2.86,25.01,1111122 
SCCF RECON,ioos:station:SCCF:13:1,2017-08-06T17:00:00Z,26.5255,-82.0032,2.891,27.41,1111122 
SCCF RECON,ioos:station:SCCF:13:1,2017-08-06T18:00:00Z,26.5255,-82.0032,2.87,27.39,1111122 
SCCF RECON,ioos:station:SCCF:13:1,2017-08-06T19:00:00Z,26.5255,-82.0032,2.785,27.45,1111122 
SCCF RECON,ioos:station:SCCF:13:1,2017-08-06T20:00:00Z,26.5255,-82.0032,2.649,26.85,1111122 
SCCF RECON,ioos:station:SCCF:13:1,2017-08-06T21:00:00Z,26.5255,-82.0032,2.538,21.34,1111122 
SCCF RECON,ioos:station:SCCF:13:1,2017-08-06T22:00:00Z,26.5255,-82.0032,2.46,17.24,1111122 
SCCF RECON,ioos:station:SCCF:13:1,2017-08-06T23:00:00Z,26.5255,-82.0032,2.37,14.66,1111122 
SCCF RECON,ioos:station:SCCF:13:1,2017-08-07T00:00:00Z,26.5255,-82.0032,2.285,11.53,1111122 
SCCF RECON,ioos:station:SCCF:13:1,2017-08-07T01:00:00Z,26.5255,-82.0032,2.25,10.12,1111122 
SCCF RECON,ioos:station:SCCF:13:1,2017-08-07T02:00:00Z,26.5255,-82.0032,2.328,8.85,1111122 
SCCF RECON,ioos:station:SCCF:13:1,2017-08-07T03:00:00Z,26.5255,-82.0032,2.47,7.95,1111122 
SCCF RECON,ioos:station:SCCF:13:1,2017-08-07T04:00:00Z,26.5255,-82.0032,2.57,10.02,1111122 
SCCF RECON,ioos:station:SCCF:13:1,2017-08-07T05:00:00Z,26.5255,-82.0032,2.624,13.31,1111122 
SCCF RECON,ioos:station:SCCF:13:1,2017-08-07T06:00:00Z,26.5255,-82.0032,2.65,17.88,1111122 
SCCF RECON,ioos:station:SCCF:13:1,2017-08-07T07:00:00Z,26.5255,-82.0032,2.66,23.57,1111122 
SCCF RECON,ioos:station:SCCF:13:1,2017-08-07T08:00:00Z,26.5255,-82.0032,2.622,24.5,1111122 
SCCF RECON,ioos:station:SCCF:13:1,2017-08-07T09:00:00Z,26.5255,-82.0032,2.58,25.09,1111122 
SCCF RECON,ioos:station:SCCF:13:1,2017-08-07T10:00:00Z,26.5255,-82.0032,2.52,24.31,1111122 
SCCF RECON,ioos:station:SCCF:13:1,2017-08-07T11:00:00Z,26.5255,-82.0032,2.491,22.33,1111122 
SCCF RECON,ioos:station:SCCF:13:1,2017-08-07T12:00:00Z,26.5255,-82.0032,2.51,16.57,1111122 
SCCF RECON,ioos:station:SCCF:13:1,2017-08-07T13:00:00Z,26.5255,-82.0032,2.57,22.11,1111122 
SCCF RECON,ioos:station:SCCF:13:1,2017-08-07T14:00:00Z,26.5255,-82.0032,2.674,20.93,1111122 
SCCF RECON,ioos:station:SCCF:13:1,2017-08-07T15:00:00Z,26.5255,-82.0032,2.776,21.5,1111122 
SCCF RECON,ioos:station:SCCF:13:1,2017-08-07T16:00:00Z,26.5255,-82.0032,2.851,24.63,1111122 
SCCF RECON,ioos:station:SCCF:13:1,2017-08-07T17:00:00Z,26.5255,-82.0032,2.909,27.32,1111122 
SCCF RECON,ioos:station:SCCF:13:1,2017-08-07T18:00:00Z,26.5255,-82.0032,2.93,28.18,1111122 
SCCF RECON,ioos:station:SCCF:13:1,2017-08-07T19:00:00Z,26.5255,-82.0032,2.88,27.84,1111122 
SCCF RECON,ioos:station:SCCF:13:1,2017-08-07T20:00:00Z,26.5255,-82.0032,2.77,27.76,1111122 
SCCF RECON,ioos:station:SCCF:13:1,2017-08-07T21:00:00Z,26.5255,-82.0032,2.628,25.94,1111122 
SCCF RECON,ioos:station:SCCF:13:1,2017-08-07T22:00:00Z,26.5255,-82.0032,2.52,21.67,1111122 
SCCF RECON,ioos:station:SCCF:13:1,2017-08-07T23:00:00Z,26.5255,-82.0032,2.44,18.68,1111122 
SCCF RECON,ioos:station:SCCF:13:1,2017-08-08T00:00:00Z,26.5255,-82.0032,2.348,14.66,1111122 
SCCF RECON,ioos:station:SCCF:13:1,2017-08-08T01:00:00Z,26.5255,-82.0032,2.27,13.36,1111122 
SCCF RECON,ioos:station:SCCF:13:1,2017-08-08T02:00:00Z,26.5255,-82.0032,2.3,12.28,1111122 
SCCF RECON,ioos:station:SCCF:13:1,2017-08-08T03:00:00Z,26.5255,-82.0032,2.447,10.48,1111122 
SCCF RECON,ioos:station:SCCF:13:1,2017-08-08T04:00:00Z,26.5255,-82.0032,2.58,10.79,1111122 
SCCF RECON,ioos:station:SCCF:13:1,2017-08-08T05:00:00Z,26.5255,-82.0032,2.64,14.6,1111122 
SCCF RECON,ioos:station:SCCF:13:1,2017-08-08T06:00:00Z,26.5255,-82.0032,2.67,17.61,1111122 
SCCF RECON,ioos:station:SCCF:13:1,2017-08-08T07:00:00Z,26.5255,-82.0032,2.69,21.89,1111122 
SCCF RECON,ioos:station:SCCF:13:1,2017-08-08T08:00:00Z,26.5255,-82.0032,2.67,24.53,1111122 
SCCF RECON,ioos:station:SCCF:13:1,2017-08-08T09:00:00Z,26.5255,-82.0032,2.62,25.25,1111122 
SCCF RECON,ioos:station:SCCF:13:1,2017-08-08T10:00:00Z,26.5255,-82.0032,2.53,24.57,1111122 
SCCF RECON,ioos:station:SCCF:13:1,2017-08-08T11:00:00Z,26.5255,-82.0032,2.46,19.42,1111122 
SCCF RECON,ioos:station:SCCF:13:1,2017-08-08T12:00:00Z,26.5255,-82.0032,2.42,11.84,1111122 
SCCF RECON,ioos:station:SCCF:13:1,2017-08-08T13:00:00Z,26.5255,-82.0032,2.466,11.09,1111122 
SCCF RECON,ioos:station:SCCF:13:1,2017-08-08T14:00:00Z,26.5255,-82.0032,2.59,11.84,1111122 
SCCF RECON,ioos:station:SCCF:13:1,2017-08-08T15:00:00Z,26.5255,-82.0032,2.717,17.3,1111122 
SCCF RECON,ioos:station:SCCF:13:1,2017-08-08T16:00:00Z,26.5255,-82.0032,2.79,22.6,1111122 
SCCF RECON,ioos:station:SCCF:13:1,2017-08-08T17:00:00Z,26.5255,-82.0032,2.84,25.45,1111122 
SCCF RECON,ioos:station:SCCF:13:1,2017-08-08T18:00:00Z,26.5255,-82.0032,2.88,27.52,1111122 
SCCF RECON,ioos:station:SCCF:13:1,2017-08-08T19:00:00Z,26.5255,-82.0032,2.89,27.84,1111122 
SCCF RECON,ioos:station:SCCF:13:1,2017-08-08T20:00:00Z,26.5255,-82.0032,2.84,27.6,1111122 
SCCF RECON,ioos:station:SCCF:13:1,2017-08-08T21:00:00Z,26.5255,-82.0032,2.716,27.65,1111122 
SCCF RECON,ioos:station:SCCF:13:1,2017-08-08T22:00:00Z,26.5255,-82.0032,2.58,25.87,1111122 
SCCF RECON,ioos:station:SCCF:13:1,2017-08-08T23:00:00Z,26.5255,-82.0032,2.48,22.88,1111122 
SCCF RECON,ioos:station:SCCF:13:1,2017-08-09T00:00:00Z,26.5255,-82.0032,2.4,21.03,1111122 
SCCF RECON,ioos:station:SCCF:13:1,2017-08-09T01:00:00Z,26.5255,-82.0032,2.325,17.28,1111122 
SCCF RECON,ioos:station:SCCF:13:1,2017-08-09T02:00:00Z,26.5255,-82.0032,2.29,14.63,1111122 
SCCF RECON,ioos:station:SCCF:13:1,2017-08-09T03:00:00Z,26.5255,-82.0032,2.4,12.82,1111122 
SCCF RECON,ioos:station:SCCF:13:1,2017-08-09T04:00:00Z,26.5255,-82.0032,2.55,11.61,1111122 
SCCF RECON,ioos:station:SCCF:13:1,2017-08-09T05:00:00Z,26.5255,-82.0032,2.61,16.08,1111122 
SCCF RECON,ioos:station:SCCF:13:1,2017-08-09T06:00:00Z,26.5255,-82.0032,2.651,18.23,1111122 
SCCF RECON,ioos:station:SCCF:13:1,2017-08-09T07:00:00Z,26.5255,-82.0032,2.71,22.27,1111122 
SCCF RECON,ioos:station:SCCF:13:1,2017-08-09T08:00:00Z,26.5255,-82.0032,2.719,24.22,1111122 
SCCF RECON,ioos:station:SCCF:13:1,2017-08-09T09:00:00Z,26.5255,-82.0032,2.66,25.7,1111122 
SCCF RECON,ioos:station:SCCF:13:1,2017-08-09T10:00:00Z,26.5255,-82.0032,2.57,25.87,1111122 
SCCF RECON,ioos:station:SCCF:13:1,2017-08-09T11:00:00Z,26.5255,-82.0032,2.5,22.92,1111122 
SCCF RECON,ioos:station:SCCF:13:1,2017-08-09T12:00:00Z,26.5255,-82.0032,2.47,15.74,1111122 
SCCF RECON,ioos:station:SCCF:13:1,2017-08-09T13:00:00Z,26.5255,-82.0032,2.44,11.94,1111122 
SCCF RECON,ioos:station:SCCF:13:1,2017-08-09T14:00:00Z,26.5255,-82.0032,2.46,10.35,1111122 
SCCF RECON,ioos:station:SCCF:13:1,2017-08-09T15:00:00Z,26.5255,-82.0032,2.58,11.34,1111122 
SCCF RECON,ioos:station:SCCF:13:1,2017-08-09T16:00:00Z,26.5255,-82.0032,2.71,17.18,1111122 
SCCF RECON,ioos:station:SCCF:13:1,2017-08-09T17:00:00Z,26.5255,-82.0032,2.8,22.65,1111122 
SCCF RECON,ioos:station:SCCF:13:1,2017-08-09T18:00:00Z,26.5255,-82.0032,2.851,25.77,1111122 
SCCF RECON,ioos:station:SCCF:13:1,2017-08-09T19:00:00Z,26.5255,-82.0032,2.879,27.92,1111122 
SCCF RECON,ioos:station:SCCF:13:1,2017-08-09T20:00:00Z,26.5255,-82.0032,2.85,27.65,1111122 
SCCF RECON,ioos:station:SCCF:13:1,2017-08-09T21:00:00Z,26.5255,-82.0032,2.744,27.52,1111122 
SCCF RECON,ioos:station:SCCF:13:1,2017-08-09T22:00:00Z,26.5255,-82.0032,2.6,27.24,1111122 
SCCF RECON,ioos:station:SCCF:13:1,2017-08-09T23:00:00Z,26.5255,-82.0032,2.491,22.06,1111122 
SCCF RECON,ioos:station:SCCF:13:1,2017-08-10T00:00:00Z,26.5255,-82.0032,2.413,17.41,1111122 
SCCF RECON,ioos:station:SCCF:13:1,2017-08-10T01:00:00Z,26.5255,-82.0032,2.33,14.4,1111122 
SCCF RECON,ioos:station:SCCF:13:1,2017-08-10T02:00:00Z,26.5255,-82.0032,2.273,12.78,1111122 
SCCF RECON,ioos:station:SCCF:13:1,2017-08-10T03:00:00Z,26.5255,-82.0032,2.291,11.68,1111122 
SCCF RECON,ioos:station:SCCF:13:1,2017-08-10T04:00:00Z,26.5255,-82.0032,2.417,10.36,1111122 
SCCF RECON,ioos:station:SCCF:13:1,2017-08-10T05:00:00Z,26.5255,-82.0032,2.52,10.52,1111122 
SCCF RECON,ioos:station:SCCF:13:1,2017-08-10T06:00:00Z,26.5255,-82.0032,2.593,14.38,1111122 
SCCF RECON,ioos:station:SCCF:13:1,2017-08-10T07:00:00Z,26.5255,-82.0032,2.65,19.34,1111122 
SCCF RECON,ioos:station:SCCF:13:1,2017-08-10T08:00:00Z,26.5255,-82.0032,2.67,21.99,1111122 
SCCF RECON,ioos:station:SCCF:13:1,2017-08-10T09:00:00Z,26.5255,-82.0032,2.657,24.59,1111122 
SCCF RECON,ioos:station:SCCF:13:1,2017-08-10T10:00:00Z,26.5255,-82.0032,2.6,25.15,1111122 
SCCF RECON,ioos:station:SCCF:13:1,2017-08-10T11:00:00Z,26.5255,-82.0032,2.52,24.61,1111122 
SCCF RECON,ioos:station:SCCF:13:1,2017-08-10T12:00:00Z,26.5255,-82.0032,2.43,19.12,1111122 
SCCF RECON,ioos:station:SCCF:13:1,2017-08-10T13:00:00Z,26.5255,-82.0032,2.39,13.0,1111122 
SCCF RECON,ioos:station:SCCF:13:1,2017-08-10T14:00:00Z,26.5255,-82.0032,2.37,11.91,1111122 
SCCF RECON,ioos:station:SCCF:13:1,2017-08-10T16:00:00Z,26.5255,-82.0032,2.571,14.4,1111122 
SCCF RECON,ioos:station:SCCF:13:1,2017-08-10T17:00:00Z,26.5255,-82.0032,2.67,17.99,1111122 
SCCF RECON,ioos:station:SCCF:13:1,2017-08-10T18:00:00Z,26.5255,-82.0032,2.73,22.27,1111122 
SCCF RECON,ioos:station:SCCF:13:1,2017-08-10T19:00:00Z,26.5255,-82.0032,2.79,25.68,1111122 
SCCF RECON,ioos:station:SCCF:13:1,2017-08-10T20:00:00Z,26.5255,-82.0032,2.793,26.66,1111122 
SCCF RECON,ioos:station:SCCF:13:1,2017-08-10T21:00:00Z,26.5255,-82.0032,2.742,27.01,1111122 
SCCF RECON,ioos:station:SCCF:13:1,2017-08-10T22:00:00Z,26.5255,-82.0032,2.63,27.25,1111122 
SCCF RECON,ioos:station:SCCF:13:1,2017-08-10T23:00:00Z,26.5255,-82.0032,2.51,25.59,1111122 
SCCF RECON,ioos:station:SCCF:13:1,2017-08-11T00:00:00Z,26.5255,-82.0032,2.439,22.0,1111122 
SCCF RECON,ioos:station:SCCF:13:1,2017-08-11T01:00:00Z,26.5255,-82.0032,2.37,18.35,1111122 
SCCF RECON,ioos:station:SCCF:13:1,2017-08-11T02:00:00Z,26.5255,-82.0032,2.28,15.47,1111122 
SCCF RECON,ioos:station:SCCF:13:1,2017-08-11T03:00:00Z,26.5255,-82.0032,2.24,13.37,1111122 
SCCF RECON,ioos:station:SCCF:13:1,2017-08-11T04:00:00Z,26.5255,-82.0032,2.3,12.12,1111122 
SCCF RECON,ioos:station:SCCF:13:1,2017-08-11T05:00:00Z,26.5255,-82.0032,2.46,11.15,1111122 
SCCF RECON,ioos:station:SCCF:13:1,2017-08-11T06:00:00Z,26.5255,-82.0032,2.559,14.39,1111122 
SCCF RECON,ioos:station:SCCF:13:1,2017-08-11T07:00:00Z,26.5255,-82.0032,2.63,18.01,1111122 
SCCF RECON,ioos:station:SCCF:13:1,2017-08-11T08:00:00Z,26.5255,-82.0032,2.67,20.97,1111122 
SCCF RECON,ioos:station:SCCF:13:1,2017-08-11T09:00:00Z,26.5255,-82.0032,2.69,23.61,1111122 
SCCF RECON,ioos:station:SCCF:13:1,2017-08-11T10:00:00Z,26.5255,-82.0032,2.67,24.42,1111122 
SCCF RECON,ioos:station:SCCF:13:1,2017-08-11T11:00:00Z,26.5255,-82.0032,2.58,24.94,1111122 
SCCF RECON,ioos:station:SCCF:13:1,2017-08-11T12:00:00Z,26.5255,-82.0032,2.45,22.33,1111122 
SCCF RECON,ioos:station:SCCF:13:1,2017-08-11T13:00:00Z,26.5255,-82.0032,2.37,18.04,1111122 
SCCF RECON,ioos:station:SCCF:13:1,2017-08-11T14:00:00Z,26.5255,-82.0032,2.36,16.0,1111122 
SCCF RECON,ioos:station:SCCF:13:1,2017-08-11T15:00:00Z,26.5255,-82.0032,2.34,14.24,1111122 
SCCF RECON,ioos:station:SCCF:13:1,2017-08-11T16:00:00Z,26.5255,-82.0032,2.41,12.84,1111122 
SCCF RECON,ioos:station:SCCF:13:1,2017-08-11T17:00:00Z,26.5255,-82.0032,2.549,13.72,1111122 
SCCF RECON,ioos:station:SCCF:13:1,2017-08-11T18:00:00Z,26.5255,-82.0032,2.619,18.18,1111122 
SCCF RECON,ioos:station:SCCF:13:1,2017-08-11T19:00:00Z,26.5255,-82.0032,2.665,20.83,1111122 